Вернуться в каталог

KKS-1

KISEKI

АктивенНаукаSSO
NORAD 33499·PAYLOAD·🇯🇵 Japan

Запущен Jan 23, 2009 с Tanegashima Space Center

Loading…

Ближайшие Пролёты (ближайшие 24 часа)

TLE

СвежийSource: Space-Track

Эпоха: Sep 14, 2026, 13:49 UTC

1 33499U 09002H   26257.57593830  .00001048  00000-0  13475-3 0  9997
2 33499  98.1161 181.4303 0008115  11.0157 349.1233 14.83313421949441

Отслеживайте KKS-1 в реальном времени с AllMySat

Download on the App Store